Location: *
(45.5667°S, 177.5167°W)
Time: 05:15:40
(UTC+00:00)

Meteor 2-6 Rocket - Pass Details

Date: 29 May 2022
Orbit: 807 x 913 km, 81.3° (Epoch: 24 June)

Event Time Altitude Azimuth Distance (km) Brightness Sun altitude
Rises 05:33:21 0° 186° (S) 3,458 7.3 -12.9°
Reaches altitude 10° 05:35:56 10° 180° (S) 2,499 6.5 -13.3°
Maximum altitude 05:41:21 46° 107° (ESE) 1,123 4.4 -14.2°
Drops below altitude 10° 05:46:35 10° 34° (NE) 2,415 6.4 -15.1°
Sets 05:49:02 0° 27° (NNE) 3,330 7.2 -15.5°
